Other Public Products
Issued by NWS Grand Forks, ND

Home | Current Version | Previous Version | Text Only | Print | Product List | Glossary Off
Versions: 1 2 3 4 5 6 7 8 9 10 11 12 13 14 15 16 17 18 19 20 21 22 23 24 25 26 27 28 29 30 31 32 33 34 35 36 37 38 39 40 41 42 43 44 45 46 47 48 49 50

000
FPUS83 KFGF 020910
OPUFGF
PRAIRIE TO PINES WEATHER ROUNDUP
NATIONAL WEATHER SERVICE EASTERN NORTH DAKOTA/GRAND FORKS ND
400 AM CDT SUN AUG 02 2015

 **SATELLITE DATA USED TO AUGMENT SKY COVER AT AUTOMATED STATIONS**
 *****  WEATHER ACROSS EASTERN NORTH DAKOTA  *****

CITY           SKY/WX    TMP DP  RH WIND       PRES   REMARKS
GRAND FORKS    MOCLDY    67  59  75 CALM      29.64F
GRAND FORKS AF MOCLDY    64  58  83 W2        29.66F
GRAND CITY NWS NOT AVBL
BUXTON         NOT AVBL
DEVILS LAKE    CLOUDY    63  54  72 NW7       29.72R
FARGO          PTCLDY    68  65  90 N10G18    29.64F
WAHPETON ARPT  MOSUNNY   64  61  88 CALM      29.65S
$$

 *****  WEATHER ACROSS CENTRAL AND WESTERN NORTH DAKOTA  *****

CITY           SKY/WX    TMP DP  RH WIND       PRES   REMARKS
JAMESTOWN      CLEAR     66  58  75 W12       29.66R
BISMARCK       CLEAR     68  52  56 VRB3      29.80R
MINOT          CLEAR     61  56  83 NW12      29.83R
MINOT AFB      CLEAR     61  59  92 NW10      29.82R
GARRISON         N/A     60  57  89 NW8       29.83R
WILLISTON      CLEAR     60  53  77 NE5       29.90R
DICKINSON      CLEAR     57  51  80 NW6       29.89R
HETTINGER      CLEAR     61  51  70 NW7       29.90R
$$

 *****  OTHER OBSERVATIONS NORTHEAST NORTH DAKOTA  *****

CITY           SKY/WX    TMP DP  RH WIND       PRES   REMARKS
WALHALLA       FAIR      59  59 100 MISG      29.70R
LANGDON        PTSUNNY   59  57  94 N9        29.72R
CAVALIER       FAIR      63  59  88 N7        29.68R
GRAFTON        PTSUNNY   64  61  88 N7G15     29.68R THUNDER
CANDO          NOT AVBL
FORT TOTTEN    NOT AVBL
ROLLA          FAIR      57  55  94 NW16      29.77R
RUGBY          NOT AVBL
 ***** THE ABOVE OBSERVATIONS ARE NON NWS ARE NOT QUALITY
        CONTROLLED AND MAY MIS-REPORT RAIN FOR SNOW...
$$

 *****  OTHER OBSERVATIONS SOUTHEAST NORTH DAKOTA *****

CITY           SKY/WX    TMP DP  RH WIND       PRES   REMARKS
COOPERSTOWN    NOT AVBL
VALLEY CITY    FAIR      64  64 100 NW3       29.66R
OAKES            N/A     64  63  94 SW9       29.64F
GWINNER          N/A     68  64  88 SW12      29.65F
SHEYENNE NWR     N/A     62  62  98 S7        29.95S
BUFFALO        NOT AVBL
WYNDMERE         N/A     64  63  94 VRB2        N/A
 ***** THE ABOVE OBSERVATIONS ARE NON NWS ARE NOT QUALITY
       CONTROLLED AND MAY MIS-REPORT RAIN FOR SNOW...
$$

  *****  WEATHER ACROSS NORTHERN MINNESOTA  *****

CITY           SKY/WX    TMP DP  RH WIND       PRES   REMARKS
FLAG ISLAND    MOCLDY    66  57  72 N8        29.65F
WARROAD        MOCLDY    61  55  82 NW7       29.66F
ROSEAU         MOCLDY    61  55  82 CALM      29.66F
HALLOCK        MOCLDY    63  61  94 N10       29.64F
THF RVR FALLS  MOCLDY    64  57  77 NE3       29.66F
HALSTAD        NOT AVBL
FOSSTON        MOCLDY    61  57  88 CALM      29.69F
BAUDETTE       MOCLDY    60  57  89 NW5       29.65F
WASKISH        LGT RAIN  66  57  72 W9G17     29.67F
CROOKSTON      MOCLDY    66  61  82 E3        29.65F
$$
  *****  WEATHER ACROSS CENTRAL AND WEST MINNESOTA  *****

CITY           SKY/WX    TMP DP  RH WIND       PRES   REMARKS
BEMIDJI        MOCLDY    63  58  83 CALM      29.68F
PARK RAPIDS    MOCLDY    65  62  90 N3        29.67F
WADENA         LGT RAIN  64  64 100 CALM      29.67R
DETROIT LAKES  MOCLDY    66  64  94 NE3       29.68S
MOORHEAD       MOCLDY    66  64  94 E3        29.63F
FERGUS FALLS   PTCLDY    68  66  94 CALM      29.65S
ELBOW LAKE     FAIR      65  64  96 SE5       29.66F
MORRIS MN      PTCLDY    66  64  94 W7        29.67R
STAPLES        MOCLDY    64  64 100 CALM      29.67S
WHEATON        PTCLDY    66  64  94 SW5       29.67S
$$
  *****  WEATHER ELSEWHERE ACROSS MINNESOTA  *****

CITY           SKY/WX    TMP DP  RH WIND       PRES   REMARKS
DULUTH         MOCLDY    69  61  75 W6        29.68R
INTRNTL FALLS  CLOUDY    61  59  93 NW7       29.66S
ELY            LGT RAIN  61  55  82 CALM      29.67F
CLOQUET        MOCLDY    66  61  82 CALM      29.68S
BRAINERD       MOCLDY    68  66  93 W3        29.66S
HIBBING        CLOUDY    67  55  65 N8        29.70F
ALEXANDRIA     PTCLDY    67  64  90 SW7       29.69R
SAINT CLOUD    CLEAR     67  65  93 S9        29.63F
MINNEAPOLIS    CLEAR     74  64  71 SW7       29.70F
$$

  *****  WEATHER ACROSS SOUTH DAKOTA  *****

CITY           SKY/WX    TMP DP  RH WIND       PRES   REMARKS
SIOUX FALLS    CLEAR     70  60  70 SW10      29.77F
BROOKINGS      CLEAR     64  57  77 SW5       29.78R
WATERTOWN      CLEAR     65  61  87 S6        29.74F
HURON          CLEAR     67  60  78 S6        29.72F
SISSETON         N/A     73  62  68 W17       29.64F
ABERDEEN       CLEAR     61  57  87 SW7       29.69F
MITCHELL       CLEAR     66  61  84 SW5       29.76F
PIERRE           N/A     71  60  68 W9        29.76F
MOBRIDGE       CLEAR     67  52  58 N10       29.75R
RAPID CITY     CLEAR     68  51  54 NW12      29.90F
$$

  *****  SOME WEATHER IN NEARBY STATES *****

CITY           SKY/WX    TMP DP  RH WIND       PRES   REMARKS
GLASGOW MT     CLEAR     61  51  70 NE7       29.95S
GREAT FALLS MT CLEAR     58  38  47 W10       29.96R
CHEYENNE WY    PTCLDY    58  51  78 W10       30.14F
SCOTTSBLUFF NE CLEAR     64  57  78 N7        30.00F
OMAHA NE       CLOUDY    74  69  85 S10       29.85F
DES MOINES IA  PTCLDY    73  62  68 SW10      29.85F
DAVENPORT IA   CLEAR     71  69  93 SW6       29.87F
CHICAGO IL     PTCLDY    72  67  84 SW10      29.86F
EAU CLAIRE WI  PTCLDY    70  66  87 SW7       29.71F
LA CROSSE WI   CLEAR     74  69  85 S6        29.75F
$$

  *****  SOME NATIONAL WEATHER *****

CITY           SKY/WX    TMP DP  RH WIND       PRES   REMARKS
LA GUARDIA NY  PTCLDY    74  60  61 NW8       29.86S
RALEIGH NC     PTCLDY    68  61  78 CALM      29.93S
ATLANTA GA     PTCLDY    76  59  55 N3        29.93S
NEW ORLEANS LA CLEAR     75  69  81 W5        29.87F
OKLAHOMA CITY  MOCLDY    73  70  90 S3        29.96F
ALBUQUERQUE NM MOCLDY    67  61  81 SE5       30.17F
SALT LAKE CITY PTCLDY    69  45  41 CALM      29.97F
LOS ANGELES CA PTCLDY    69  63  81 CALM      29.90F
BOISE ID       PTCLDY    76  38  25 SE5       29.87F
SEATTLE WA     CLEAR     72  50  45 NE8       29.92F
$$

*** WEATHER ACROSS MANITOBA...SASKATCHEWAN AND ONTARIO ***
                ***ONTARIO***

CITY           SKY/WX    TMP DP  RH WIND       PRES   REMARKS
GERALDTON      MOCLDY    54  54 100 SW6       29.57S
THUNDER BAY    TSTM      61  59  94 W7        29.65R
SIOUX LOOKOUT  MOCLDY    57  57 100 W5        29.62F
TORONTO        PTCLDY    64  55  72 SW5       29.83R
BIG TROUT LK   LGT RAIN  50  48  93 NW14G22   29.44F
PICKLE LAKE    NOT AVBL
DRYDEN         PTCLDY    55  55 100 W6        29.64
KENORA         MOCLDY    61  57  88 W5        29.68S
$$
                *** MANITOBA***

CITY           SKY/WX    TMP DP  RH WIND       PRES   REMARKS
BRANDON        PTCLDY    57  55  94 NW8       29.79R
DAUPHIN        MOCLDY    55  54  94 W9        29.79R
ISLAND LAKE    CLOUDY    54  48  82 W16       29.57F
PILOT MOUND      N/A     57  57 100 NW6         N/A
THE PAS        PTCLDY    59  46  63 NW12      29.78R
THOMPSON       LGT RAIN  50  48  93 NW8       29.64S
WINNIPEG       MOCLDY    55  54  94 NW7       29.71R
LYNN LAKE      LGT RAIN  52  46  82 N13G26    29.75S
CHURCHILL      LGT RAIN  46  45  93 N20       29.53S
$$
                ***SASKATCHEWAN***

CITY           SKY/WX    TMP DP  RH WIND       PRES   REMARKS
ESTEVAN        CLEAR     52  50  93 W7        29.88R
KINDERSLEY     PTCLDY    55  52  88 NE3       30.02R
LLOYDMINSTER   CLEAR     50  46  87 NW5       30.02R
PRINCE ALBERT  CLEAR     52  50  93 W5        29.93R
REGINA         CLEAR     55  54  94 NW10      29.93R
YORKTON        PTCLDY    57  54  88 NW8       29.86R



USA.gov is the U.S. government's official web portal to all federal, state and local government web resources and services.